Location: Bocchiglicro
(39.4167°N, 16.7500°E)
Time: 02:20:09
(UTC+00:00)

Cosmos 2333 Rocket - Pass Details

Date: 07 June 2020
Orbit: 838 x 863 km, 70.8° (Epoch: 06 July)

Event Time Altitude Azimuth Distance (km) Brightness Sun altitude
Exits shadow 00:55:34 - 142° (SE) 2,646 4.6 -21.4°
Reaches altitude 10° 00:56:23 10° 136° (SE) 2,449 4.4 -21.3°
Maximum altitude 00:59:46 17° 99° (E) 2,034 4.4 -21.0°
Drops below altitude 10° 01:03:10 10° 61° (ENE) 2,466 5.5 -20.7°
Sets 01:06:30 0° 42° (NE) 3,410 6.9 -20.3°
